Location: Belfast
(54.5830°N, 5.9330°W)
Time: 14:08:01
(UTC+01:00)

ISS - Pass Details

Date: 26 May 2017
Orbit: 402 x 408 km, 51.6° (Epoch: 26 May)

Event Time Altitude Azimuth Distance (km) Brightness Sun altitude
Rises 03:58:44 0° 274° (W) 2,331 -0.3 -7.1°
Reaches altitude 10° 04:01:39 10° 246° (WSW) 1,465 -1.5 -6.8°
Maximum altitude 04:03:16 13° 216° (SW) 1,288 -2.0 -6.7°
Drops below altitude 10° 04:04:52 10° 187° (S) 1,459 -1.5 -6.5°
Sets 04:07:46 0° 158° (SSE) 2,312 -0.3 -6.3°
